Flag for Morocco Weather past 2 weeks in Tangier, Morocco

Now
59 °F

Light rain. Partly cloudy.


Feels Like: 55 °F
Forecast: N/A
Wind: 20 mph from West

Location: Tanger Aerodrome

Current Time: Jan 30, 2015 at 5:21:44 PM

Latest Report: Jan 30, 2015 at 5:00 PM


Visibility: 2 mi

Pressure: 29.98 "Hg

Humidity: 94%

Dew point: 57 °F

Location of TangierLocation

Historic Weather in Tangier — Graph

°F

Tangier temperature yesterday

Maximum temperature yesterday: 59 °F (at 12:30 PM)
Minimum temperature yesterday: 52 °F (at 12:00 AM)
Average temperature yesterday: 55 °F

Past Weeks' High & Low Weather Summary

 TemperatureHumidityPressure
High63 °F (Jan 15, 4:00 PM)94% (Jan 16, 2:30 AM)30.42 "Hg (Jan 16, 2:30 AM)
Low34 °F (Jan 25, 7:00 AM)41% (Jan 24, 2:30 PM)29.68 "Hg (Jan 19, 4:00 AM)
Average52 °F78%30.17 "Hg
* Reported Jan 15 4:00 PM — Jan 30 4:00 PM, Tangier, Weather by CustomWeather, © 2014

Note: Actual official high and low records may vary slightly from our data, if they occured in-between our weather recording intervals... More about our weather records

Advertising

Tangier weather history for previous 24 hours

 ConditionsComfort  
Time TempWeatherWind HumidityBarometerVisibility
4:00 PM
Jan 30
59 °FBroken clouds.21 mph94%29.98 "Hg3 mi
3:30 PM59 °FBroken clouds.20 mph94%29.98 "Hg3 mi
3:00 PM59 °FBroken clouds.22 mph94%30.01 "Hg4 mi
2:30 PM59 °FBroken clouds.23 mph94%30.01 "Hg4 mi
2:00 PM61 °FPartly sunny.22 mph88%30.01 "Hg4 mi
1:30 PM59 °FPartly sunny.20 mph94%30.04 "Hg4 mi
1:00 PM59 °FPartly sunny.20 mph94%30.04 "Hg4 mi
12:00 PM59 °FFog.18 mph94%30.07 "Hg1 mi
11:30 AM59 °FLight rain. Broken clouds.18 mph94%30.09 "Hg2 mi
11:00 AM59 °FLight rain. Broken clouds.18 mph94%30.09 "Hg2 mi
10:30 AM59 °FLight rain. Broken clouds.18 mph94%30.09 "Hg2 mi
10:00 AM59 °FLight rain. Broken clouds.20 mph88%30.09 "Hg2 mi
9:30 AM59 °FBroken clouds.16 mph88%30.07 "Hg3 mi
8:30 AM59 °FFog.18 mph88%30.07 "Hg2 mi
8:00 AM59 °FBroken clouds.15 mph88%30.07 "HgN/A
7:30 AM59 °FBroken clouds.16 mph82%30.07 "HgN/A
7:00 AM59 °FBroken clouds.17 mph82%30.07 "Hg4 mi
6:30 AM57 °FBroken clouds.15 mph88%30.07 "Hg4 mi
6:00 AM57 °FPartly cloudy.16 mph88%30.07 "Hg4 mi
5:00 AM57 °FPartly cloudy.16 mph94%30.09 "Hg4 mi
4:30 AM57 °FPartly cloudy.15 mph94%30.07 "Hg4 mi
4:00 AM57 °FRain. Partly cloudy.17 mph94%30.09 "Hg4 mi
3:30 AM57 °FCool.16 mph94%30.09 "Hg4 mi
3:00 AM57 °FFog.16 mph94%30.09 "Hg1 mi
2:30 AM57 °FPartly cloudy.16 mph94%30.12 "Hg6 mi
2:00 AM57 °FPartly cloudy.16 mph94%30.12 "HgN/A
1:30 AM57 °FFog.15 mph94%30.12 "Hg6 mi
1:00 AM57 °FPartly cloudy.15 mph94%30.12 "HgN/A
12:30 AM57 °FPartly cloudy.15 mph94%30.12 "HgN/A
12:00 AM59 °FPartly cloudy.15 mph88%30.15 "Hg4 mi
11:30 PM
Jan 29
57 °FPartly cloudy.12 mph94%30.15 "Hg3 mi
11:00 PM57 °FLight rain. Partly cloudy.17 mph88%30.15 "Hg3 mi
10:30 PM57 °FPassing clouds.16 mph88%30.18 "Hg5 mi
10:00 PM59 °FPassing clouds.17 mph77%30.15 "Hg5 mi
9:30 PM59 °FPassing clouds.17 mph77%30.15 "Hg5 mi
9:00 PM57 °FPassing clouds.15 mph82%30.15 "Hg5 mi
8:30 PM57 °FPassing clouds.16 mph82%30.18 "Hg5 mi
8:00 PM57 °FPassing clouds.15 mph77%30.18 "Hg5 mi
7:30 PM57 °FPassing clouds.15 mph77%30.18 "Hg5 mi
7:00 PM57 °FPassing clouds.14 mph82%30.18 "Hg5 mi
6:30 PM57 °FPassing clouds.13 mph82%30.18 "Hg5 mi
6:00 PM57 °FPassing clouds.13 mph82%30.18 "Hg5 mi
5:00 PM57 °FPassing clouds.13 mph82%30.18 "Hg5 mi
Weather by CustomWeather, © 2014

See weather overviewHow to use our weather pages